Weather History for Weslaco, TX

Change the Weather History Date:

Tuesday, November 20, 2012

  Actual Average (KMFE) Record (KMFE)
Temperature  
Mean Temperature 70 °F 68 °F  
Max Temperature 84 °F 79 °F 93 °F (1973)
Min Temperature 55 °F 58 °F 33 °F (1906)
Degree Days  
Heating Degree Days 0 2  
Month to date heating degree days 26  
Since 1 July heating degree days 31  
Cooling Degree Days 4 5  
Month to date cooling degree days 143  
Year to date cooling degree days 4325  
Growing Degree Days 20 (Base 50)    
Moisture  
Dew Point 57 °F    
Average Humidity 64    
Maximum Humidity 94    
Minimum Humidity 35    
Precipitation  
Precipitation 0.00 in 0.03 in 0.53 in (1976)
Month to date precipitation 0.63  
Year to date precipitation 20.75  
Sea Level Pressure  
Sea Level Pressure 30.16 in    
Wind  
Wind Speed 2 mph (ENE)    
Max Wind Speed 12 mph    
Max Gust Speed -    
Visibility 10 miles    
Events      
T = Trace of Precipitation, MM = Missing Value Source: NWS Daily Summary

Daily Weather History Graph

Daily Weather History Graph

Search for Another Location

Airport:

Trip Planner

Search our weather history database for the weather conditions in past years. The results will help you decide how hot, cold, wet, or windy it might be!

Date:

Astronomy

Nov. 20, 2012 Rise Set
Actual Time 6:54 AM CST 5:40 PM CST
Civil Twilight 6:29 AM CST 6:05 PM CST
Nautical Twilight 6:01 AM CST 6:33 PM CST
Astronomical Twilight 5:34 AM CST 7:01 PM CST
Moon 12:49 PM CST (11/20) No Moon Set
Length of Visible Light 11h 35m
Length of Day
10h 46m
First Quarter, 51% of the Moon is Illuminated
Nov 20
First Quarter
Nov 28
Full
Dec 6
Last Quarter
Dec 13
New
Dec 19
First Quarter

Hourly Weather History & Observations

Time (CST) Temp. Heat Index Dew Point Humidity Pressure Visibility Wind Dir Wind Speed Gust Speed Precip Events Conditions
12:15 AM 60.8 °F - 55.4 °F 82% 30.16 in 10.0 mi Calm Calm - N/A   Unknown
12:35 AM 60.8 °F - 55.4 °F 82% 30.16 in 10.0 mi Calm Calm - N/A   Unknown
12:55 AM 60.8 °F - 55.4 °F 82% 30.15 in 10.0 mi Calm Calm - N/A   Unknown
1:15 AM 60.8 °F - 55.4 °F 82% 30.15 in 10.0 mi Calm Calm - N/A   Unknown
1:35 AM 59.0 °F - 55.4 °F 88% 30.16 in 10.0 mi Calm Calm - N/A   Unknown
1:55 AM 60.8 °F - 55.4 °F 82% 30.15 in 10.0 mi Calm Calm - N/A   Unknown
2:15 AM 59.0 °F - 53.6 °F 82% 30.14 in 10.0 mi Calm Calm - N/A   Unknown
2:35 AM 59.0 °F - 55.4 °F 88% 30.14 in 10.0 mi Calm Calm - N/A   Unknown
6:15 AM 55.4 °F - 53.6 °F 94% 30.15 in 7.0 mi Calm Calm - N/A   Unknown
6:35 AM 57.2 °F - 53.6 °F 88% 30.16 in 10.0 mi Calm Calm - N/A   Unknown
6:55 AM 57.2 °F - 53.6 °F 88% 30.17 in 10.0 mi Calm Calm - N/A   Unknown
7:15 AM 57.2 °F - 53.6 °F 88% 30.18 in 10.0 mi Calm Calm - N/A   Unknown
7:35 AM 59.0 °F - 53.6 °F 82% 30.18 in 10.0 mi Calm Calm - N/A   Unknown
7:55 AM 59.0 °F - 55.4 °F 88% 30.19 in 10.0 mi Calm Calm - N/A   Unknown
8:15 AM 60.8 °F - 55.4 °F 82% 30.20 in 10.0 mi Calm Calm - N/A   Unknown
8:35 AM 62.6 °F - 57.2 °F 82% 30.21 in 10.0 mi Calm Calm - N/A   Unknown
8:55 AM 66.2 °F - 59.0 °F 78% 30.21 in 10.0 mi NE 3.5 mph - N/A   Unknown
9:15 AM 69.8 °F - 59.0 °F 68% 30.21 in 10.0 mi Calm Calm - N/A   Unknown
9:35 AM 71.6 °F - 59.0 °F 64% 30.22 in 10.0 mi NE 3.5 mph - N/A   Unknown
9:55 AM 73.4 °F - 59.0 °F 61% 30.21 in 10.0 mi Calm Calm - N/A   Unknown
10:15 AM 77.0 °F - 59.0 °F 54% 30.21 in 10.0 mi Calm Calm - N/A   Unknown
10:35 AM 77.0 °F - 59.0 °F 54% 30.21 in 10.0 mi Calm Calm - N/A   Unknown
10:55 AM 78.8 °F - 59.0 °F 51% 30.21 in 10.0 mi Calm Calm - N/A   Unknown
11:15 AM 78.8 °F - 55.4 °F 44% 30.20 in 10.0 mi NE 3.5 mph - N/A   Unknown
11:35 AM 78.8 °F - 55.4 °F 44% 30.19 in 10.0 mi NE 4.6 mph - N/A   Unknown
11:55 AM 78.8 °F - 55.4 °F 44% 30.18 in 10.0 mi Calm Calm - N/A   Unknown
12:15 PM 78.8 °F - 55.4 °F 44% 30.17 in 10.0 mi ESE 4.6 mph - N/A   Unknown
12:35 PM 78.8 °F - 55.4 °F 44% 30.16 in 10.0 mi Calm Calm - N/A   Unknown
12:55 PM 80.6 °F 80.3 °F 53.6 °F 39% 30.15 in 10.0 mi Calm Calm - N/A   Unknown
1:15 PM 80.6 °F 80.3 °F 53.6 °F 39% 30.13 in 10.0 mi East 4.6 mph - N/A   Unknown
1:35 PM 82.4 °F 81.4 °F 53.6 °F 37% 30.13 in 10.0 mi Calm Calm - N/A   Unknown
1:55 PM 82.4 °F 81.4 °F 53.6 °F 37% 30.12 in 10.0 mi NE 4.6 mph - N/A   Unknown
2:15 PM 82.4 °F 81.4 °F 53.6 °F 37% 30.12 in 10.0 mi Calm Calm - N/A   Unknown
2:35 PM 82.4 °F 81.4 °F 53.6 °F 37% 30.11 in 10.0 mi ESE 5.8 mph - N/A   Unknown
2:55 PM 84.2 °F 82.8 °F 53.6 °F 35% 30.11 in 10.0 mi NE 5.8 mph - N/A   Unknown
3:15 PM 80.6 °F 80.3 °F 53.6 °F 39% 30.10 in 10.0 mi North 3.5 mph - N/A   Unknown
3:35 PM 80.6 °F 80.3 °F 53.6 °F 39% 30.10 in 10.0 mi East 3.5 mph - N/A   Unknown
3:55 PM 80.6 °F 80.3 °F 53.6 °F 39% 30.10 in 10.0 mi ENE 5.8 mph - N/A   Unknown
4:15 PM 80.6 °F 80.5 °F 55.4 °F 42% 30.11 in 10.0 mi ENE 4.6 mph - N/A   Unknown
4:35 PM 78.8 °F - 55.4 °F 44% 30.11 in 10.0 mi ENE 5.8 mph - N/A   Unknown
4:55 PM 78.8 °F - 55.4 °F 44% 30.12 in 10.0 mi East 9.2 mph - N/A   Unknown
5:15 PM 77.0 °F - 55.4 °F 47% 30.12 in 10.0 mi East 11.5 mph - N/A   Unknown
5:35 PM 77.0 °F - 55.4 °F 47% 30.13 in 10.0 mi East 10.4 mph - N/A   Unknown
5:55 PM 75.2 °F - 57.2 °F 53% 30.13 in 10.0 mi East 9.2 mph - N/A   Unknown
6:15 PM 73.4 °F - 57.2 °F 57% 30.14 in 10.0 mi East 5.8 mph - N/A   Unknown
6:35 PM 73.4 °F - 57.2 °F 57% 30.15 in 10.0 mi East 5.8 mph - N/A   Unknown
6:55 PM 71.6 °F - 59.0 °F 64% 30.16 in 10.0 mi East 6.9 mph - N/A   Unknown
7:15 PM 71.6 °F - 59.0 °F 64% 30.16 in 10.0 mi East 5.8 mph - N/A   Unknown
7:35 PM 69.8 °F - 59.0 °F 68% 30.17 in 10.0 mi East 4.6 mph - N/A   Unknown
7:55 PM 69.8 °F - 59.0 °F 68% 30.18 in 10.0 mi Calm Calm - N/A   Unknown
8:15 PM 69.8 °F - 59.0 °F 68% 30.18 in 10.0 mi Calm Calm - N/A   Unknown
8:35 PM 69.8 °F - 59.0 °F 68% 30.19 in 10.0 mi Calm Calm - N/A   Unknown
8:55 PM 68.0 °F - 59.0 °F 73% 30.19 in 10.0 mi Calm Calm - N/A   Unknown
9:15 PM 68.0 °F - 60.8 °F 78% 30.19 in 10.0 mi Calm Calm - N/A   Unknown
9:35 PM 68.0 °F - 60.8 °F 78% 30.20 in 10.0 mi Calm Calm - N/A   Unknown
9:55 PM 68.0 °F - 60.8 °F 78% 30.20 in 10.0 mi East 3.5 mph - N/A   Unknown
10:15 PM 66.2 °F - 60.8 °F 83% 30.20 in 10.0 mi Calm Calm - N/A   Unknown
10:35 PM 66.2 °F - 60.8 °F 83% 30.20 in 10.0 mi East 3.5 mph - N/A   Unknown
10:55 PM 66.2 °F - 60.8 °F 83% 30.19 in 10.0 mi East 4.6 mph - N/A   Unknown
11:15 PM 66.2 °F - 60.8 °F 83% 30.19 in 10.0 mi East 3.5 mph - N/A   Unknown
11:35 PM 66.2 °F - 60.8 °F 83% 30.19 in 10.0 mi Calm Calm - N/A   Unknown
11:55 PM 66.2 °F - 59.0 °F 78% 30.18 in 10.0 mi Calm Calm - N/A   Unknown